User: anonymous   Login
Location: Radford
(37.1320°N, 80.5770°W)
Time: 05:43:23
(UTC-04:00)
Language:

Okean 1-7 - Orbit

View from above orbital plane
View from above orbital plane
View from above satellite
View from above satellite

Ground track
Ground track

The orbit data is extracted from the following two-line orbital elements,

1 23317U 94066A   16208.85100638  .00000231  00000-0  22772-4 0  9999
2 23317  82.5362  64.2144 0021365  66.3106 294.0350 14.87213764177588
Epoch (UTC): 26 July 2016 20:25:26
Eccentricity: 0.0021365
inclination: 82.5362°
perigee height: 592 km
apogee height: 621 km
right ascension of ascending node: 64.2144°
argument of perigee: 66.3106°
revolutions per day: 14.87213764
mean anomaly at epoch: 294.0350°
orbit number at epoch: 17758

The dashed part of the orbit path shows where the satellite is in the earth's shadow,  

DLR